Main page
METAR-TAF:

METAR-TAF

Airports :

Black Hills Airport

Spearfish, South Dakota, United States

latitude: 44-29N, longitude: 103-47W, elevation: 3897 ft

Current weather observation

The report was made 21 minutes ago, at 23:35 UTC
Wind 9 mph from the East/Northeast
Temperature 54°F
Humidity 32%
Pressure 30.06 in. Hg
Visibility: 10 miles
Clear sky

METAR: KSPF 072335Z AUTO 06008KT 10SM CLR 12/M04 A3006 RMK AO2 PWINO

Time: 16:56 (23:56 UTC)


TAF: missing

Weather observations and forecasts of more than 4000 airports (METAR and TAF reports).

The available stations are represented by yellow and red dots on the map.

Hover mouse over dot to see the name of the station.

Then click to see weather observations and forecasts.

To change the map : click on the green buttons with a black cross to zoom in, on the green button with a dash to zoom out, or on the green arrows for adjacent maps.


METAR-TAF: